Time,TemperatureF,DewpointF,PressureIn,WindDirection,WindDirectionDegrees,WindSpeedMPH,WindSpeedGustMPH,Humidity,HourlyPrecipIn,Conditions,Clouds,dailyrainin,SoftwareType,DateUTC
2013-01-30 00:21:00,39.0,38.0,30.12,ENE,60,3.0,5.0,95,-99.99,,,-99.99,,2013-01-30 05:21:00,
2013-01-30 00:31:00,39.0,38.0,30.12,ENE,60,3.0,5.0,95,-99.99,,,-99.99,,2013-01-30 05:31:00,
2013-01-30 00:42:00,40.0,38.0,30.12,East,90,6.0,7.0,95,-99.99,,,-99.99,,2013-01-30 05:42:00,
2013-01-30 00:51:00,40.0,38.0,30.11,ESE,110,8.0,9.0,95,-99.99,,,-99.99,,2013-01-30 05:51:00,
2013-01-30 01:01:00,40.0,38.0,30.11,ESE,110,8.0,9.0,95,-99.99,,,-99.99,,2013-01-30 06:01:00,
2013-01-30 01:11:00,40.0,39.0,30.10,East,100,9.0,10.0,95,-99.99,,,-99.99,,2013-01-30 06:11:00,
2013-01-30 01:21:00,40.0,39.0,30.09,East,100,9.0,10.0,96,-99.99,,,-99.99,,2013-01-30 06:21:00,
2013-01-30 01:31:00,40.0,39.0,30.09,East,100,9.0,10.0,96,-99.99,,,-99.99,,2013-01-30 06:31:00,
2013-01-30 01:41:00,40.0,39.0,30.08,East,100,9.0,10.0,95,-99.99,,,-99.99,,2013-01-30 06:41:00,
2013-01-30 01:51:00,41.0,40.0,30.07,East,100,8.0,9.0,95,-99.99,,,-99.99,,2013-01-30 06:51:00,
2013-01-30 02:01:00,41.0,40.0,30.07,East,100,8.0,9.0,95,-99.99,,,-99.99,,2013-01-30 07:01:00,
2013-01-30 02:11:00,40.0,40.0,30.06,East,90,10.0,11.0,96,-99.99,,,-99.99,,2013-01-30 07:11:00,
2013-01-30 02:21:00,41.0,40.0,30.06,East,90,11.0,13.0,96,-99.99,,,-99.99,,2013-01-30 07:21:00,
2013-01-30 02:31:00,41.0,40.0,30.05,East,90,11.0,13.0,96,-99.99,,,-99.99,,2013-01-30 07:31:00,
2013-01-30 02:41:00,41.0,40.0,30.05,East,90,11.0,13.0,96,-99.99,,,-99.99,,2013-01-30 07:41:00,
2013-01-30 02:52:00,42.0,41.0,30.04,East,100,13.0,14.0,96,-99.99,,,-99.99,,2013-01-30 07:52:00,
2013-01-30 03:01:00,42.0,41.0,30.04,East,100,13.0,14.0,96,-99.99,,,-99.99,,2013-01-30 08:01:00,
2013-01-30 03:11:00,42.0,41.0,30.04,East,100,11.0,13.0,96,-99.99,,,-99.99,,2013-01-30 08:11:00,
2013-01-30 03:21:00,42.0,41.0,30.03,ESE,110,13.0,14.0,96,-99.99,,,-99.99,,2013-01-30 08:21:00,
2013-01-30 03:31:00,42.0,41.0,30.03,ESE,110,13.0,14.0,96,-99.99,,,-99.99,,2013-01-30 08:31:00,
2013-01-30 03:41:00,42.0,41.0,30.02,East,100,10.0,10.0,96,-99.99,,,-99.99,,2013-01-30 08:41:00,
2013-01-30 03:52:00,43.0,42.0,30.01,ESE,110,13.0,14.0,96,-99.99,,,-99.99,,2013-01-30 08:52:00,
2013-01-30 04:01:00,43.0,42.0,30.01,ESE,110,13.0,14.0,96,-99.99,,,-99.99,,2013-01-30 09:01:00,
2013-01-30 04:11:00,44.0,43.0,30.00,ESE,120,14.0,17.0,96,-99.99,,,-99.99,,2013-01-30 09:11:00,
2013-01-30 04:21:00,44.0,43.0,30.00,ESE,110,13.0,14.0,95,-99.99,,,-99.99,,2013-01-30 09:21:00,
2013-01-30 04:31:00,44.0,43.0,30.00,ESE,110,13.0,14.0,95,-99.99,,,-99.99,,2013-01-30 09:31:00,
2013-01-30 04:41:00,44.0,43.0,30.00,ESE,110,13.0,14.0,95,-99.99,,,-99.99,,2013-01-30 09:41:00,
2013-01-30 04:51:00,44.0,43.0,29.99,East,100,14.0,15.0,96,-99.99,,,-99.99,,2013-01-30 09:51:00,
2013-01-30 05:01:00,44.0,43.0,29.99,East,100,14.0,15.0,96,-99.99,,,-99.99,,2013-01-30 10:01:00,
2013-01-30 05:11:00,45.0,44.0,29.98,East,100,13.0,14.0,96,-99.99,,,-99.99,,2013-01-30 10:11:00,
2013-01-30 05:21:00,45.0,44.0,29.97,ESE,110,14.0,15.0,96,-99.99,,,-99.99,,2013-01-30 10:21:00,
2013-01-30 05:31:00,45.0,44.0,29.97,ESE,110,14.0,15.0,96,-99.99,,,-99.99,,2013-01-30 10:31:00,
2013-01-30 05:41:00,45.0,44.0,29.96,ESE,110,13.0,14.0,96,-99.99,,,-99.99,,2013-01-30 10:41:00,
2013-01-30 05:51:00,45.0,44.0,29.96,SE,140,10.0,11.0,97,-99.99,,,-99.99,,2013-01-30 10:51:00,
2013-01-30 06:01:00,45.0,44.0,29.96,SE,140,10.0,11.0,97,-99.99,,,-99.99,,2013-01-30 11:01:00,
2013-01-30 06:11:00,46.0,45.0,29.96,SSE,150,11.0,13.0,96,-99.99,,,-99.99,,2013-01-30 11:11:00,
2013-01-30 06:21:00,46.0,45.0,29.96,SSE,160,7.0,9.0,96,-99.99,,,-99.99,,2013-01-30 11:21:00,
2013-01-30 06:32:00,46.0,45.0,29.96,SSE,160,7.0,9.0,96,-99.99,,,-99.99,,2013-01-30 11:32:00,
2013-01-30 06:41:00,47.0,46.0,29.96,SSE,160,2.0,3.0,96,-99.99,,,-99.99,,2013-01-30 11:41:00,
2013-01-30 06:51:00,47.0,46.0,29.95,SSE,150,3.0,6.0,96,-99.99,,,-99.99,,2013-01-30 11:51:00,
2013-01-30 07:01:00,47.0,46.0,29.95,SSE,150,3.0,6.0,96,-99.99,,,-99.99,,2013-01-30 12:01:00,
2013-01-30 07:12:00,47.0,47.0,29.96,South,170,6.0,8.0,96,-99.99,,,-99.99,,2013-01-30 12:12:00,
2013-01-30 07:21:00,47.0,46.0,29.94,SSE,150,9.0,10.0,97,-99.99,,,-99.99,,2013-01-30 12:21:00,
2013-01-30 07:32:00,47.0,46.0,29.94,SSE,160,10.0,11.0,97,-99.99,,,-99.99,,2013-01-30 12:32:00,
2013-01-30 07:42:00,47.0,46.0,29.94,SSE,160,10.0,11.0,97,-99.99,,,-99.99,,2013-01-30 12:42:00,
2013-01-30 08:01:00,47.0,47.0,29.93,SSE,160,9.0,11.0,97,-99.99,,,-99.99,,2013-01-30 13:01:00,
2013-01-30 08:12:00,47.0,46.0,29.92,SE,140,9.0,11.0,97,-99.99,,,-99.99,,2013-01-30 13:12:00,
2013-01-30 08:22:00,47.0,46.0,29.91,SSE,150,8.0,10.0,97,-99.99,,,-99.99,,2013-01-30 13:22:00,
2013-01-30 08:31:00,47.0,46.0,29.91,SSE,150,8.0,10.0,97,-99.99,,,-99.99,,2013-01-30 13:31:00,
2013-01-30 08:42:00,47.0,47.0,29.90,SSE,150,10.0,13.0,97,-99.99,,,-99.99,,2013-01-30 13:42:00,
2013-01-30 08:52:00,47.0,46.0,29.90,SSE,160,13.0,16.0,97,-99.99,,,-99.99,,2013-01-30 13:52:00,
2013-01-30 09:01:00,47.0,46.0,29.90,SSE,160,13.0,16.0,97,-99.99,,,-99.99,,2013-01-30 14:01:00,
2013-01-30 09:11:00,47.0,46.0,29.89,SSE,160,11.0,14.0,97,-99.99,,,-99.99,,2013-01-30 14:11:00,
2013-01-30 09:21:00,47.0,46.0,29.88,South,190,10.0,14.0,97,-99.99,,,-99.99,,2013-01-30 14:21:00,
2013-01-30 09:31:00,47.0,46.0,29.88,South,190,10.0,14.0,97,-99.99,,,-99.99,,2013-01-30 14:31:00,
2013-01-30 09:41:00,47.0,47.0,29.87,South,170,16.0,20.0,97,-99.99,,,-99.99,,2013-01-30 14:41:00,
2013-01-30 09:52:00,48.0,47.0,29.87,South,180,21.0,23.0,97,-99.99,,,-99.99,,2013-01-30 14:52:00,
2013-01-30 10:02:00,48.0,47.0,29.87,South,180,21.0,23.0,97,-99.99,,,-99.99,,2013-01-30 15:02:00,
2013-01-30 10:11:00,47.0,46.0,29.88,WNW,300,7.0,10.0,97,-99.99,,,-99.99,,2013-01-30 15:11:00,
2013-01-30 10:22:00,49.0,49.0,29.87,SSW,210,10.0,15.0,97,-99.99,,,-99.99,,2013-01-30 15:22:00,
2013-01-30 10:31:00,49.0,49.0,29.87,SSW,210,10.0,15.0,97,-99.99,,,-99.99,,2013-01-30 15:31:00,
2013-01-30 10:42:00,48.0,47.0,29.86,WSW,240,6.0,8.0,97,-99.99,,,-99.99,,2013-01-30 15:42:00,
2013-01-30 10:52:00,47.0,47.0,29.86,SW,230,3.0,5.0,97,-99.99,,,-99.99,,2013-01-30 15:52:00,
2013-01-30 11:02:00,47.0,47.0,29.86,SW,230,3.0,5.0,97,-99.99,,,-99.99,,2013-01-30 16:02:00,
2013-01-30 11:11:00,48.0,48.0,29.85,West,280,2.0,5.0,97,-99.99,,,-99.99,,2013-01-30 16:11:00,
2013-01-30 11:21:00,49.0,48.0,29.83,West,270,7.0,14.0,97,-99.99,,,-99.99,,2013-01-30 16:21:00,
2013-01-30 11:31:00,49.0,49.0,29.83,SW,230,6.0,10.0,98,-99.99,,,-99.99,,2013-01-30 16:31:00,
2013-01-30 11:41:00,49.0,49.0,29.83,SW,230,6.0,10.0,98,-99.99,,,-99.99,,2013-01-30 16:41:00,
2013-01-30 11:51:00,51.0,51.0,29.81,SSW,210,16.0,23.0,98,-99.99,,,-99.99,,2013-01-30 16:51:00,
2013-01-30 12:01:00,51.0,51.0,29.81,SSW,210,16.0,23.0,98,-99.99,,,-99.99,,2013-01-30 17:01:00,
2013-01-30 12:11:00,52.0,51.0,29.80,SSW,210,17.0,21.0,97,-99.99,,,-99.99,,2013-01-30 17:11:00,
2013-01-30 12:21:00,51.0,50.0,29.78,SSW,210,15.0,17.0,96,-99.99,,,-99.99,,2013-01-30 17:21:00,
2013-01-30 12:31:00,51.0,50.0,29.78,SSW,210,15.0,17.0,96,-99.99,,,-99.99,,2013-01-30 17:31:00,
2013-01-30 12:41:00,50.0,48.0,29.76,SW,220,13.0,17.0,94,-99.99,,,-99.99,,2013-01-30 17:41:00,
2013-01-30 12:52:00,48.0,47.0,29.77,WSW,240,6.0,9.0,95,-99.99,,,-99.99,,2013-01-30 17:52:00,
2013-01-30 13:01:00,48.0,47.0,29.77,WSW,240,6.0,9.0,95,-99.99,,,-99.99,,2013-01-30 18:01:00,
2013-01-30 13:11:00,50.0,49.0,29.75,West,260,5.0,7.0,96,-99.99,,,-99.99,,2013-01-30 18:11:00,
2013-01-30 13:21:00,50.0,49.0,29.73,SW,220,20.0,25.0,96,-99.99,,,-99.99,,2013-01-30 18:21:00,
2013-01-30 13:32:00,50.0,49.0,29.73,SW,220,20.0,25.0,96,-99.99,,,-99.99,,2013-01-30 18:32:00,
2013-01-30 13:42:00,50.0,49.0,29.74,WSW,240,14.0,18.0,97,-99.99,,,-99.99,,2013-01-30 18:42:00,
2013-01-30 13:51:00,52.0,51.0,29.73,WSW,240,14.0,18.0,96,-99.99,,,-99.99,,2013-01-30 18:51:00,
2013-01-30 14:01:00,52.0,51.0,29.73,WSW,240,14.0,18.0,96,-99.99,,,-99.99,,2013-01-30 19:01:00,
2013-01-30 14:11:00,51.0,50.0,29.74,West,270,14.0,16.0,96,-99.99,,,-99.99,,2013-01-30 19:11:00,
2013-01-30 14:21:00,50.0,49.0,29.73,SW,230,13.0,15.0,98,-99.99,,,-99.99,,2013-01-30 19:21:00,
2013-01-30 14:31:00,51.0,50.0,29.72,SW,220,16.0,18.0,98,-99.99,,,-99.99,,2013-01-30 19:31:00,
2013-01-30 14:42:00,51.0,50.0,29.72,SW,220,16.0,18.0,98,-99.99,,,-99.99,,2013-01-30 19:42:00,
2013-01-30 14:52:00,49.0,49.0,29.73,SW,230,15.0,18.0,98,-99.99,,,-99.99,,2013-01-30 19:52:00,
2013-01-30 15:02:00,49.0,49.0,29.73,SW,230,15.0,18.0,98,-99.99,,,-99.99,,2013-01-30 20:02:00,
2013-01-30 15:11:00,50.0,49.0,29.72,SW,230,17.0,20.0,98,-99.99,,,-99.99,,2013-01-30 20:11:00,
2013-01-30 15:21:00,50.0,49.0,29.71,SW,220,13.0,15.0,97,-99.99,,,-99.99,,2013-01-30 20:21:00,
2013-01-30 15:32:00,50.0,49.0,29.71,SW,220,13.0,15.0,97,-99.99,,,-99.99,,2013-01-30 20:32:00,
2013-01-30 15:41:00,49.0,48.0,29.70,SW,220,15.0,17.0,97,-99.99,,,-99.99,,2013-01-30 20:41:00,
2013-01-30 15:52:00,50.0,50.0,29.69,SSW,210,17.0,18.0,98,-99.99,,,-99.99,,2013-01-30 20:52:00,
2013-01-30 16:02:00,50.0,50.0,29.69,SSW,210,17.0,18.0,98,-99.99,,,-99.99,,2013-01-30 21:02:00,
2013-01-30 16:11:00,50.0,49.0,29.68,SSW,210,18.0,22.0,97,-99.99,,,-99.99,,2013-01-30 21:11:00,
2013-01-30 16:21:00,50.0,49.0,29.68,SSW,210,18.0,20.0,97,-99.99,,,-99.99,,2013-01-30 21:21:00,
2013-01-30 16:31:00,50.0,49.0,29.68,SW,220,15.0,16.0,98,-99.99,,,-99.99,,2013-01-30 21:31:00,
2013-01-30 16:41:00,50.0,49.0,29.68,SW,220,15.0,16.0,98,-99.99,,,-99.99,,2013-01-30 21:41:00,
2013-01-30 16:52:00,51.0,50.0,29.68,SW,220,18.0,21.0,97,-99.99,,,-99.99,,2013-01-30 21:52:00,
2013-01-30 17:01:00,51.0,50.0,29.68,SW,220,18.0,21.0,97,-99.99,,,-99.99,,2013-01-30 22:01:00,
2013-01-30 17:11:00,52.0,51.0,29.68,SW,220,22.0,25.0,97,-99.99,,,-99.99,,2013-01-30 22:11:00,
2013-01-30 17:21:00,51.0,50.0,29.68,SW,230,14.0,21.0,97,-99.99,,,-99.99,,2013-01-30 22:21:00,
2013-01-30 17:31:00,51.0,50.0,29.68,SW,230,14.0,21.0,97,-99.99,,,-99.99,,2013-01-30 22:31:00,
2013-01-30 17:41:00,52.0,51.0,29.69,West,270,5.0,7.0,97,-99.99,,,-99.99,,2013-01-30 22:41:00,
2013-01-30 17:52:00,51.0,51.0,29.69,SW,230,3.0,5.0,98,-99.99,,,-99.99,,2013-01-30 22:52:00,
2013-01-30 18:01:00,51.0,51.0,29.69,SW,230,3.0,5.0,98,-99.99,,,-99.99,,2013-01-30 23:01:00,
2013-01-30 18:11:00,53.0,52.0,29.68,SW,220,11.0,16.0,98,-99.99,,,-99.99,,2013-01-30 23:11:00,
2013-01-30 18:21:00,52.0,51.0,29.67,SW,230,16.0,21.0,98,-99.99,,,-99.99,,2013-01-30 23:21:00,
2013-01-30 18:32:00,50.0,50.0,29.66,SW,220,15.0,17.0,97,-99.99,,,-99.99,,2013-01-30 23:32:00,
2013-01-30 18:42:00,50.0,50.0,29.66,SW,220,15.0,17.0,97,-99.99,,,-99.99,,2013-01-30 23:42:00,
2013-01-30 18:52:00,52.0,51.0,29.63,South,190,29.0,32.0,97,-99.99,,,-99.99,,2013-01-30 23:52:00,
2013-01-30 19:01:00,52.0,51.0,29.63,South,190,29.0,32.0,97,-99.99,,,-99.99,,2013-01-31 00:01:00,
2013-01-30 19:11:00,52.0,51.0,29.62,SSW,200,30.0,38.0,97,-99.99,,,-99.99,,2013-01-31 00:11:00,
2013-01-30 19:21:00,52.0,51.0,29.62,SSW,200,30.0,38.0,97,-99.99,,,-99.99,,2013-01-31 00:21:00,
2013-01-30 19:31:00,52.0,51.0,29.62,SSW,200,30.0,38.0,97,-99.99,,,-99.99,,2013-01-31 00:31:00,
2013-01-30 19:41:00,52.0,51.0,29.62,SSW,200,30.0,38.0,97,-99.99,,,-99.99,,2013-01-31 00:41:00,